Flag for Luxembourg Weather past 2 weeks in Differdange, Luxembourg

55 °F

Partly sunny.

Feels Like: 53 °F
Forecast: 47 / 58 °F
Wind: 9 mph from Northeast

Location: Luxembourg Airport

Current Time: Oct 9, 2015 at 12:39:20 PM

Latest Report: Oct 9, 2015 at 11:50 AM

Visibility: 5 mi

Pressure: 30.15 "Hg

Humidity: 82%

Dew point: 50 °F

Location of DifferdangeLocation

Historic Weather in Differdange — Graph


Differdange temperature yesterday

Maximum temperature yesterday: 55 °F (at 1:20 PM)
Minimum temperature yesterday: 50 °F (at 2:50 AM)
Average temperature yesterday: 52 °F

Past Weeks' High & Low Weather Summary

High64 °F (Oct 2, 3:20 PM)100% (Sep 25, 7:20 AM)30.57 "Hg (Sep 25, 7:20 AM)
Low43 °F (Oct 1, 6:50 AM)39% (Oct 1, 2:50 PM)29.62 "Hg (Oct 6, 2:50 PM)
Average54 °F78%30.16 "Hg
* Reported Sep 24 11:20 AM — Oct 9 11:20 AM, Differdange, Weather by CustomWeather, © 2015

Note: Actual official high and low records may vary slightly from our data, if they occured in-between our weather recording intervals... More about our weather records


Differdange weather history for previous 24 hours

Time TempWeatherWind HumidityBarometerVisibility
11:20 AM
Fri, Oct 9
54 °FPartly sunny.9 mph88%30.15 "Hg5 mi
10:50 AM54 °FScattered clouds.12 mph88%30.15 "Hg4 mi
10:20 AM52 °FPassing clouds.9 mph94%30.15 "Hg4 mi
9:50 AM52 °FClear.8 mph88%30.15 "Hg4 mi
9:20 AM50 °FFog.8 mph94%30.15 "Hg3 mi
8:50 AM50 °FFog.7 mph94%30.15 "Hg2 mi
8:20 AM48 °FFog.7 mph100%30.15 "Hg2 mi
7:50 AM48 °FFog.7 mph94%30.15 "Hg2 mi
7:20 AM50 °FFog.8 mph94%30.15 "Hg3 mi
6:50 AM50 °FPassing clouds.6 mph94%30.15 "Hg4 mi
6:20 AM50 °FClear.6 mph94%30.15 "Hg5 mi
5:50 AM48 °FOvercast.6 mph100%30.15 "Hg5 mi
5:20 AM46 °FClear.5 mph100%30.15 "Hg10 mi
4:50 AM46 °FClear.3 mph93%30.15 "Hg10 mi
4:20 AM46 °FOvercast.5 mph93%30.15 "HgN/A
3:50 AM46 °FCool.1 mph93%30.15 "HgN/A
3:20 AM48 °FPassing clouds.3 mph94%30.15 "HgN/A
2:50 AM48 °FOvercast.3 mph94%30.15 "HgN/A
2:20 AM50 °FOvercast.1 mph88%30.15 "HgN/A
1:50 AM50 °FOvercast.1 mph88%30.18 "HgN/A
1:20 AM50 °FClear.3 mph88%30.15 "Hg10 mi
12:50 AM50 °FClear.3 mph88%30.18 "Hg10 mi
12:20 AM50 °FClear.2 mph88%30.18 "Hg10 mi
11:50 PM
Thu, Oct 8
50 °FClear.1 mph94%30.18 "Hg10 mi
11:20 PM50 °FClear.2 mph94%30.18 "Hg10 mi
10:50 PM50 °FOvercast.2 mph94%30.18 "HgN/A
10:20 PM50 °FClear.1 mph88%30.18 "Hg10 mi
9:50 PM50 °FPassing clouds.3 mph88%30.18 "HgN/A
9:20 PM50 °FClear.2 mph88%30.15 "Hg10 mi
8:50 PM50 °FClear.2 mph94%30.15 "Hg10 mi
8:20 PM50 °FClear.2 mph88%30.15 "Hg10 mi
7:50 PM50 °FSunny.3 mph88%30.15 "Hg10 mi
7:20 PM50 °FPartly sunny.2 mph94%30.15 "HgN/A
6:50 PM52 °FPartly sunny.3 mph82%30.15 "HgN/A
6:20 PM54 °FPartly sunny.3 mph77%30.15 "HgN/A
5:50 PM54 °FPartly sunny.3 mph77%30.15 "HgN/A
5:20 PM54 °FPartly sunny.5 mph77%30.15 "HgN/A
4:50 PM54 °FPartly sunny.3 mph77%30.15 "HgN/A
4:20 PM55 °FPartly sunny.5 mph72%30.15 "HgN/A
3:50 PM55 °FPartly sunny.5 mph72%30.15 "HgN/A
3:20 PM55 °FOvercast.3 mph67%30.15 "HgN/A
2:50 PM55 °FPartly sunny.5 mph72%30.15 "HgN/A
2:20 PM55 °FPartly sunny.5 mph72%30.15 "HgN/A
1:50 PM55 °FPartly sunny.5 mph72%30.15 "HgN/A
1:20 PM55 °FPartly sunny.5 mph72%30.15 "HgN/A
12:50 PM54 °FBroken clouds.5 mph72%30.15 "HgN/A
12:20 PM54 °FBroken clouds.2 mph77%30.15 "HgN/A
Weather by CustomWeather, © 2015

See weather overviewHow to use our weather pages